Time,TemperatureF,DewpointF,PressureIn,WindDirection,WindDirectionDegrees,WindSpeedMPH,WindSpeedGustMPH,Humidity,HourlyPrecipIn,Conditions,Clouds,dailyrainin,SoftwareType,DateUTC
2013-02-04 00:05:00,27.4,19.2,30.19,WNW,296,5.0,7.0,71,0.00,,,0.00,Wunderground v.1.15,2013-02-04 05:05:00,
2013-02-04 00:10:00,27.3,19.5,30.19,NNW,341,3.0,3.0,72,0.00,,,0.00,Wunderground v.1.15,2013-02-04 05:10:00,
2013-02-04 00:15:00,27.2,19.0,30.19,NNW,329,2.0,3.0,71,0.00,,,0.00,Wunderground v.1.15,2013-02-04 05:15:00,
2013-02-04 00:25:00,27.0,19.2,30.19,NW,325,3.0,3.0,72,0.00,,,0.00,Wunderground v.1.15,2013-02-04 05:25:00,
2013-02-04 00:30:00,26.9,19.1,30.19,NW,324,2.0,2.0,72,0.00,,,0.00,Wunderground v.1.15,2013-02-04 05:30:00,
2013-02-04 00:40:00,26.8,19.3,30.19,WNW,302,1.0,1.0,73,0.00,,,0.00,Wunderground v.1.15,2013-02-04 05:40:00,
2013-02-04 00:45:00,26.7,19.5,30.19,NNW,331,1.0,1.0,74,0.00,,,0.00,Wunderground v.1.15,2013-02-04 05:45:00,
2013-02-04 00:55:00,26.6,18.8,30.18,WNW,300,1.0,1.0,72,0.00,,,0.00,Wunderground v.1.15,2013-02-04 05:55:00,
2013-02-04 01:00:00,26.5,18.7,30.18,WNW,303,1.0,3.0,72,0.00,,,0.00,Wunderground v.1.15,2013-02-04 06:00:00,
2013-02-04 01:10:00,26.3,18.5,30.18,NW,317,3.0,3.0,72,0.00,,,0.00,Wunderground v.1.15,2013-02-04 06:10:00,
2013-02-04 01:15:00,26.3,18.5,30.18,WNW,288,2.0,5.0,72,0.00,,,0.00,Wunderground v.1.15,2013-02-04 06:15:00,
2013-02-04 01:25:00,26.0,18.2,30.18,West,281,2.0,2.0,72,0.00,,,0.00,Wunderground v.1.15,2013-02-04 06:25:00,
2013-02-04 01:30:00,26.0,18.5,30.18,NW,311,1.0,1.0,73,0.00,,,0.00,Wunderground v.1.15,2013-02-04 06:30:00,
2013-02-04 01:40:00,25.6,18.1,30.18,WNW,293,1.0,1.0,73,0.00,,,0.00,Wunderground v.1.15,2013-02-04 06:40:00,
2013-02-04 01:45:00,25.4,18.6,30.18,South,186,1.0,1.0,75,0.00,,,0.00,Wunderground v.1.15,2013-02-04 06:45:00,
2013-02-04 01:55:00,24.7,18.2,30.18,South,186,0.0,1.0,76,0.00,,,0.00,Wunderground v.1.15,2013-02-04 06:55:00,
2013-02-04 02:05:00,24.3,18.1,30.17,East,95,1.0,1.0,77,0.00,,,0.00,Wunderground v.1.15,2013-02-04 07:05:00,
2013-02-04 02:10:00,24.4,18.2,30.17,WNW,292,1.0,1.0,77,0.00,,,0.00,Wunderground v.1.15,2013-02-04 07:10:00,
2013-02-04 02:15:00,24.5,18.0,30.17,West,278,1.0,1.0,76,0.00,,,0.00,Wunderground v.1.15,2013-02-04 07:15:00,
2013-02-04 02:25:00,23.8,17.6,30.16,SSW,202,0.0,0.0,77,0.00,,,0.00,Wunderground v.1.15,2013-02-04 07:25:00,
2013-02-04 02:35:00,23.0,17.5,30.16,SSW,202,0.0,0.0,79,0.00,,,0.00,Wunderground v.1.15,2013-02-04 07:35:00,
2013-02-04 02:40:00,22.6,17.4,30.15,SSW,202,0.0,0.0,80,0.00,,,0.00,Wunderground v.1.15,2013-02-04 07:40:00,
2013-02-04 02:45:00,21.8,16.9,30.16,SSW,202,0.0,0.0,81,0.00,,,0.00,Wunderground v.1.15,2013-02-04 07:45:00,
2013-02-04 02:50:00,21.4,16.8,30.16,SSW,202,0.0,0.0,82,0.00,,,0.00,Wunderground v.1.15,2013-02-04 07:50:00,
2013-02-04 02:55:00,21.0,16.6,30.15,SSW,202,0.0,0.0,83,0.00,,,0.00,Wunderground v.1.15,2013-02-04 07:55:00,
2013-02-04 03:00:00,20.6,16.3,30.16,SSW,202,0.0,0.0,83,0.00,,,0.00,Wunderground v.1.15,2013-02-04 08:00:00,
2013-02-04 03:10:00,19.9,16.1,30.17,SSW,196,0.0,0.0,85,0.00,,,0.00,Wunderground v.1.15,2013-02-04 08:10:00,
2013-02-04 03:15:00,20.1,18.1,30.16,WSW,253,0.0,0.0,92,0.00,,,0.00,Wunderground v.1.15,2013-02-04 08:15:00,
2013-02-04 03:25:00,19.8,16.0,30.17,WSW,255,0.0,1.0,85,0.00,,,0.00,Wunderground v.1.15,2013-02-04 08:25:00,
2013-02-04 03:30:00,19.7,15.9,30.16,WSW,255,0.0,0.0,85,0.00,,,0.00,Wunderground v.1.15,2013-02-04 08:30:00,
2013-02-04 03:40:00,19.8,16.3,30.17,WSW,255,0.0,0.0,86,0.00,,,0.00,Wunderground v.1.15,2013-02-04 08:40:00,
2013-02-04 03:45:00,19.9,16.4,30.16,WSW,255,0.0,0.0,86,0.00,,,0.00,Wunderground v.1.15,2013-02-04 08:45:00,
2013-02-04 03:50:00,19.9,16.4,30.17,WSW,255,0.0,1.0,86,0.00,,,0.00,Wunderground v.1.15,2013-02-04 08:50:00,
2013-02-04 03:55:00,19.9,16.4,30.17,WSW,255,0.0,1.0,86,0.00,,,0.00,Wunderground v.1.15,2013-02-04 08:55:00,
2013-02-04 04:00:00,20.4,16.9,30.17,SSW,203,0.0,4.0,86,0.00,,,0.00,Wunderground v.1.15,2013-02-04 09:00:00,
2013-02-04 04:10:00,21.6,17.5,30.16,SSW,196,1.0,1.0,84,0.00,,,0.00,Wunderground v.1.15,2013-02-04 09:10:00,
2013-02-04 04:15:00,22.0,17.9,30.16,NW,309,1.0,1.0,84,0.00,,,0.00,Wunderground v.1.15,2013-02-04 09:15:00,
2013-02-04 04:20:00,22.1,17.2,30.16,SSW,200,1.0,1.0,81,0.00,,,0.00,Wunderground v.1.15,2013-02-04 09:20:00,
2013-02-04 04:25:00,21.3,16.7,30.15,WSW,248,1.0,1.0,82,0.00,,,0.00,Wunderground v.1.15,2013-02-04 09:25:00,
2013-02-04 04:30:00,20.6,16.3,30.15,WNW,287,1.0,1.0,83,0.00,,,0.00,Wunderground v.1.15,2013-02-04 09:30:00,
2013-02-04 04:40:00,19.6,15.6,30.15,WNW,286,1.0,1.0,84,0.00,,,0.00,Wunderground v.1.15,2013-02-04 09:40:00,
2013-02-04 04:45:00,19.1,15.3,30.15,WNW,287,1.0,1.0,85,0.00,,,0.00,Wunderground v.1.15,2013-02-04 09:45:00,
2013-02-04 04:55:00,18.5,15.0,30.15,WNW,286,0.0,0.0,86,0.00,,,0.00,Wunderground v.1.15,2013-02-04 09:55:00,
2013-02-04 05:00:00,18.1,14.6,30.14,WNW,286,0.0,0.0,86,0.00,,,0.00,Wunderground v.1.15,2013-02-04 10:00:00,
2013-02-04 05:10:00,17.4,14.2,30.15,WNW,287,0.0,0.0,87,0.00,,,0.00,Wunderground v.1.15,2013-02-04 10:10:00,
2013-02-04 05:20:00,16.7,13.8,30.15,WNW,287,0.0,0.0,88,0.00,,,0.00,Wunderground v.1.15,2013-02-04 10:20:00,
2013-02-04 05:25:00,16.2,13.3,30.15,WNW,287,0.0,0.0,88,0.00,,,0.00,Wunderground v.1.15,2013-02-04 10:25:00,
2013-02-04 05:30:00,16.1,13.4,30.15,WNW,287,0.0,0.0,89,0.00,,,0.00,Wunderground v.1.15,2013-02-04 10:30:00,
2013-02-04 05:40:00,15.7,13.3,30.16,WNW,287,0.0,4.0,90,0.00,,,0.00,Wunderground v.1.15,2013-02-04 10:40:00,
2013-02-04 05:45:00,15.6,13.2,30.17,WNW,286,1.0,4.0,90,0.00,,,0.00,Wunderground v.1.15,2013-02-04 10:45:00,
2013-02-04 05:50:00,15.7,13.3,30.17,WNW,286,1.0,1.0,90,0.00,,,0.00,Wunderground v.1.15,2013-02-04 10:50:00,
2013-02-04 05:55:00,15.7,13.3,30.18,WNW,287,0.0,1.0,90,0.00,,,0.00,Wunderground v.1.15,2013-02-04 10:55:00,
2013-02-04 06:00:00,15.5,13.1,30.18,WNW,286,0.0,0.0,90,0.00,,,0.00,Wunderground v.1.15,2013-02-04 11:00:00,
2013-02-04 06:10:00,15.4,13.0,30.18,West,264,1.0,1.0,90,0.00,,,0.00,Wunderground v.1.15,2013-02-04 11:10:00,
2013-02-04 06:15:00,15.5,13.3,30.17,West,264,1.0,1.0,91,0.00,,,0.00,Wunderground v.1.15,2013-02-04 11:15:00,
2013-02-04 06:25:00,15.4,13.2,30.18,West,265,1.0,1.0,91,0.00,,,0.00,Wunderground v.1.15,2013-02-04 11:25:00,
2013-02-04 06:30:00,15.3,13.1,30.18,West,265,0.0,0.0,91,0.00,,,0.00,Wunderground v.1.15,2013-02-04 11:30:00,
2013-02-04 06:35:00,15.1,12.7,30.18,West,265,0.0,0.0,90,0.00,,,0.00,Wunderground v.1.15,2013-02-04 11:35:00,
2013-02-04 06:40:00,14.9,12.7,30.19,West,275,0.0,0.0,91,0.00,,,0.00,Wunderground v.1.15,2013-02-04 11:40:00,
2013-02-04 06:50:00,14.8,12.6,30.19,West,275,0.0,0.0,91,0.00,,,0.00,Wunderground v.1.15,2013-02-04 11:50:00,
2013-02-04 06:55:00,14.8,12.6,30.19,West,275,0.0,2.0,91,0.00,,,0.00,Wunderground v.1.15,2013-02-04 11:55:00,
2013-02-04 07:00:00,14.8,12.6,30.19,West,275,0.0,0.0,91,0.00,,,0.00,Wunderground v.1.15,2013-02-04 12:00:00,
2013-02-04 07:10:00,14.6,12.5,30.19,West,275,0.0,0.0,91,0.00,,,0.00,Wunderground v.1.15,2013-02-04 12:10:00,
2013-02-04 07:15:00,14.5,12.4,30.20,West,275,0.0,0.0,91,0.00,,,0.00,Wunderground v.1.15,2013-02-04 12:15:00,
2013-02-04 07:20:00,14.4,12.3,30.20,West,275,0.0,0.0,91,0.00,,,0.00,Wunderground v.1.15,2013-02-04 12:20:00,
2013-02-04 07:25:00,14.5,12.4,30.20,West,275,0.0,0.0,91,0.00,,,0.00,Wunderground v.1.15,2013-02-04 12:25:00,
2013-02-04 07:30:00,14.8,12.9,30.20,West,275,0.0,0.0,92,0.00,,,0.00,Wunderground v.1.15,2013-02-04 12:30:00,
2013-02-04 07:40:00,14.8,12.9,30.20,West,275,1.0,1.0,92,0.00,,,0.00,Wunderground v.1.15,2013-02-04 12:40:00,
2013-02-04 07:45:00,14.9,13.0,30.21,West,275,1.0,1.0,92,0.00,,,0.00,Wunderground v.1.15,2013-02-04 12:45:00,
2013-02-04 07:55:00,15.3,13.4,30.22,West,275,0.0,0.0,92,0.00,,,0.00,Wunderground v.1.15,2013-02-04 12:55:00,
2013-02-04 08:00:00,15.4,13.5,30.22,West,275,0.0,1.0,92,0.00,,,0.00,Wunderground v.1.15,2013-02-04 13:00:00,
2013-02-04 08:05:00,15.8,13.9,30.22,West,275,0.0,1.0,92,0.00,,,0.00,Wunderground v.1.15,2013-02-04 13:05:00,
2013-02-04 08:10:00,16.1,14.2,30.23,West,275,0.0,1.0,92,0.00,,,0.00,Wunderground v.1.15,2013-02-04 13:10:00,
2013-02-04 08:15:00,16.3,14.4,30.23,West,275,0.0,1.0,92,0.00,,,0.00,Wunderground v.1.15,2013-02-04 13:15:00,
2013-02-04 08:25:00,16.8,14.9,30.23,West,275,0.0,0.0,92,0.00,,,0.00,Wunderground v.1.15,2013-02-04 13:25:00,
2013-02-04 08:30:00,17.2,15.3,30.23,West,275,0.0,0.0,92,0.00,,,0.00,Wunderground v.1.15,2013-02-04 13:30:00,
2013-02-04 08:40:00,17.9,16.0,30.23,West,275,0.0,0.0,92,0.00,,,0.00,Wunderground v.1.15,2013-02-04 13:40:00,
2013-02-04 08:45:00,18.2,16.0,30.23,West,275,0.0,0.0,91,0.00,,,0.00,Wunderground v.1.15,2013-02-04 13:45:00,
2013-02-04 08:55:00,18.9,16.7,30.23,West,275,0.0,0.0,91,0.00,,,0.00,Wunderground v.1.15,2013-02-04 13:55:00,
2013-02-04 09:00:00,19.4,17.2,30.23,West,275,0.0,0.0,91,0.00,,,0.00,Wunderground v.1.15,2013-02-04 14:00:00,
2013-02-04 09:10:00,20.2,17.7,30.22,West,275,0.0,0.0,90,0.00,,,0.00,Wunderground v.1.15,2013-02-04 14:10:00,
2013-02-04 09:15:00,20.6,17.9,30.22,West,275,0.0,0.0,89,0.00,,,0.00,Wunderground v.1.15,2013-02-04 14:15:00,
2013-02-04 09:25:00,21.2,18.2,30.22,West,275,0.0,0.0,88,0.00,,,0.00,Wunderground v.1.15,2013-02-04 14:25:00,
2013-02-04 09:30:00,21.7,19.0,30.22,West,275,0.0,0.0,89,0.00,,,0.00,Wunderground v.1.15,2013-02-04 14:30:00,
2013-02-04 09:40:00,22.7,19.4,30.22,West,275,0.0,0.0,87,0.00,,,0.00,Wunderground v.1.15,2013-02-04 14:40:00,
2013-02-04 09:50:00,23.4,19.6,30.21,West,275,0.0,0.0,85,0.00,,,0.00,Wunderground v.1.15,2013-02-04 14:50:00,
2013-02-04 09:55:00,23.7,19.6,30.21,West,275,0.0,0.0,84,0.00,,,0.00,Wunderground v.1.15,2013-02-04 14:55:00,
2013-02-04 10:00:00,24.0,19.9,30.21,West,275,0.0,0.0,84,0.00,,,0.00,Wunderground v.1.15,2013-02-04 15:00:00,
2013-02-04 10:10:00,24.4,20.0,30.20,West,275,0.0,0.0,83,0.00,,,0.00,Wunderground v.1.15,2013-02-04 15:10:00,
2013-02-04 10:15:00,24.7,20.3,30.20,West,275,0.0,0.0,83,0.00,,,0.00,Wunderground v.1.15,2013-02-04 15:15:00,
2013-02-04 10:25:00,25.7,21.0,30.21,West,275,0.0,0.0,82,0.00,,,0.00,Wunderground v.1.15,2013-02-04 15:25:00,
2013-02-04 10:30:00,26.4,21.4,30.21,West,275,0.0,0.0,81,0.00,,,0.00,Wunderground v.1.15,2013-02-04 15:30:00,
2013-02-04 10:35:00,27.2,21.8,30.21,West,275,0.0,0.0,80,0.00,,,0.00,Wunderground v.1.15,2013-02-04 15:35:00,
2013-02-04 10:40:00,27.8,21.8,30.20,West,275,0.0,2.0,78,0.00,,,0.00,Wunderground v.1.15,2013-02-04 15:40:00,
2013-02-04 10:45:00,28.2,22.2,30.20,West,275,1.0,2.0,78,0.00,,,0.00,Wunderground v.1.15,2013-02-04 15:45:00,
2013-02-04 10:55:00,28.7,22.4,30.21,NW,315,1.0,4.0,77,0.00,,,0.00,Wunderground v.1.15,2013-02-04 15:55:00,
2013-02-04 11:00:00,28.6,22.3,30.20,NW,315,2.0,2.0,77,0.00,,,0.00,Wunderground v.1.15,2013-02-04 16:00:00,
2013-02-04 11:10:00,28.9,22.6,30.21,NW,315,1.0,1.0,77,0.00,,,0.00,Wunderground v.1.15,2013-02-04 16:10:00,
2013-02-04 11:15:00,29.4,23.1,30.20,NW,315,1.0,1.0,77,0.00,,,0.01,Wunderground v.1.15,2013-02-04 16:15:00,
2013-02-04 11:25:00,29.8,22.8,30.20,NW,315,1.0,1.0,75,0.00,,,0.01,Wunderground v.1.15,2013-02-04 16:25:00,
2013-02-04 11:30:00,30.1,23.4,30.20,NW,315,1.0,1.0,76,0.05,,,0.02,Wunderground v.1.15,2013-02-04 16:30:00,
2013-02-04 11:35:00,30.6,23.3,30.20,NW,315,1.0,2.0,74,0.05,,,0.02,Wunderground v.1.15,2013-02-04 16:35:00,
2013-02-04 11:40:00,30.7,23.1,30.20,NW,312,2.0,2.0,73,0.04,,,0.02,Wunderground v.1.15,2013-02-04 16:40:00,
2013-02-04 11:45:00,30.7,23.4,30.19,NW,312,2.0,2.0,74,0.04,,,0.03,Wunderground v.1.15,2013-02-04 16:45:00,
2013-02-04 11:55:00,30.6,23.0,30.19,WNW,298,2.0,3.0,73,0.04,,,0.03,Wunderground v.1.15,2013-02-04 16:55:00,
2013-02-04 12:00:00,30.8,23.2,30.18,WNW,297,2.0,2.0,73,0.00,,,0.03,Wunderground v.1.15,2013-02-04 17:00:00,
2013-02-04 12:10:00,31.4,23.1,30.18,NW,309,2.0,2.0,71,0.00,,,0.04,Wunderground v.1.15,2013-02-04 17:10:00,
2013-02-04 12:15:00,31.4,23.1,30.18,WNW,303,2.0,2.0,71,0.00,,,0.04,Wunderground v.1.15,2013-02-04 17:15:00,
2013-02-04 12:20:00,31.6,22.9,30.18,WNW,293,2.0,2.0,70,0.00,,,0.04,Wunderground v.1.15,2013-02-04 17:20:00,
2013-02-04 12:25:00,31.7,23.0,30.17,WNW,291,2.0,2.0,70,0.04,,,0.05,Wunderground v.1.15,2013-02-04 17:25:00,
2013-02-04 12:30:00,32.1,23.1,30.17,NW,310,1.0,1.0,69,0.04,,,0.05,Wunderground v.1.15,2013-02-04 17:30:00,
2013-02-04 12:40:00,32.4,23.0,30.17,NW,313,2.0,3.0,68,0.00,,,0.05,Wunderground v.1.15,2013-02-04 17:40:00,
2013-02-04 12:45:00,32.5,23.1,30.17,NW,315,2.0,3.0,68,0.00,,,0.05,Wunderground v.1.15,2013-02-04 17:45:00,
2013-02-04 12:55:00,32.7,23.3,30.17,NW,315,3.0,5.0,68,0.00,,,0.06,Wunderground v.1.15,2013-02-04 17:55:00,
2013-02-04 13:00:00,33.0,23.6,30.16,NW,315,2.0,3.0,68,0.00,,,0.06,Wunderground v.1.15,2013-02-04 18:00:00,
2013-02-04 13:05:00,33.1,23.3,30.16,NW,315,2.0,3.0,67,0.00,,,0.06,Wunderground v.1.15,2013-02-04 18:05:00,
2013-02-04 13:10:00,33.2,23.1,30.15,NW,315,1.0,1.0,66,0.00,,,0.07,Wunderground v.1.15,2013-02-04 18:10:00,
2013-02-04 13:20:00,33.6,22.7,30.14,NW,315,1.0,2.0,64,0.00,,,0.07,Wunderground v.1.15,2013-02-04 18:20:00,
2013-02-04 13:25:00,33.9,22.2,30.14,NW,315,0.0,2.0,62,0.00,,,0.07,Wunderground v.1.15,2013-02-04 18:25:00,
2013-02-04 13:30:00,34.3,22.2,30.14,NW,315,0.0,1.0,61,0.00,,,0.07,Wunderground v.1.15,2013-02-04 18:30:00,
2013-02-04 13:40:00,35.4,22.9,30.13,NW,315,0.0,0.0,60,0.00,,,0.08,Wunderground v.1.15,2013-02-04 18:40:00,
2013-02-04 13:45:00,35.5,22.6,30.12,NW,315,0.0,2.0,59,0.00,,,0.08,Wunderground v.1.15,2013-02-04 18:45:00,
2013-02-04 13:55:00,35.0,22.5,30.11,NW,315,1.0,1.0,60,0.00,,,0.09,Wunderground v.1.15,2013-02-04 18:55:00,
2013-02-04 14:00:00,35.0,22.5,30.12,NW,315,1.0,1.0,60,0.00,,,0.09,Wunderground v.1.15,2013-02-04 19:00:00,
2013-02-04 14:05:00,35.2,22.3,30.11,NW,315,0.0,1.0,59,0.00,,,0.09,Wunderground v.1.15,2013-02-04 19:05:00,
2013-02-04 14:10:00,35.6,22.3,30.11,NW,315,0.0,0.0,58,0.00,,,0.09,Wunderground v.1.15,2013-02-04 19:10:00,
2013-02-04 14:15:00,35.9,22.1,30.11,NW,315,0.0,0.0,57,0.00,,,0.10,Wunderground v.1.15,2013-02-04 19:15:00,
2013-02-04 14:25:00,36.4,23.0,30.11,NW,315,0.0,0.0,58,0.05,,,0.11,Wunderground v.1.15,2013-02-04 19:25:00,
2013-02-04 14:30:00,36.5,22.3,30.11,NW,315,0.0,1.0,56,0.05,,,0.11,Wunderground v.1.15,2013-02-04 19:30:00,
2013-02-04 14:35:00,36.6,22.4,30.10,NW,315,0.0,1.0,56,0.05,,,0.11,Wunderground v.1.15,2013-02-04 19:35:00,
2013-02-04 14:40:00,36.9,22.2,30.10,NW,325,0.0,1.0,55,0.04,,,0.12,Wunderground v.1.15,2013-02-04 19:40:00,
2013-02-04 14:45:00,36.8,21.7,30.10,NNW,333,1.0,1.0,54,0.04,,,0.12,Wunderground v.1.15,2013-02-04 19:45:00,
2013-02-04 14:55:00,37.0,21.0,30.10,NNW,333,0.0,1.0,52,0.04,,,0.13,Wunderground v.1.15,2013-02-04 19:55:00,
2013-02-04 15:00:00,37.3,21.7,30.10,NNW,333,0.0,0.0,53,0.04,,,0.13,Wunderground v.1.15,2013-02-04 20:00:00,
2013-02-04 15:10:00,37.8,22.2,30.09,NNW,333,0.0,0.0,53,0.04,,,0.13,Wunderground v.1.15,2013-02-04 20:10:00,
2013-02-04 15:15:00,37.7,22.1,30.09,NNW,333,0.0,0.0,53,0.00,,,0.14,Wunderground v.1.15,2013-02-04 20:15:00,
2013-02-04 15:25:00,37.8,22.6,30.09,NNW,333,0.0,0.0,54,0.00,,,0.14,Wunderground v.1.15,2013-02-04 20:25:00,
2013-02-04 15:30:00,37.6,22.4,30.09,NNW,333,0.0,2.0,54,0.00,,,0.14,Wunderground v.1.15,2013-02-04 20:30:00,
2013-02-04 15:40:00,37.4,24.0,30.09,NNE,22,1.0,1.0,58,0.00,,,0.15,Wunderground v.1.15,2013-02-04 20:40:00,
2013-02-04 15:45:00,37.4,22.3,30.08,NNE,22,0.0,1.0,54,0.00,,,0.15,Wunderground v.1.15,2013-02-04 20:45:00,
2013-02-04 15:55:00,37.7,23.4,30.08,NNE,22,0.0,0.0,56,0.00,,,0.15,Wunderground v.1.15,2013-02-04 20:55:00,
2013-02-04 16:00:00,37.8,23.1,30.08,NNE,24,0.0,0.0,55,0.00,,,0.15,Wunderground v.1.15,2013-02-04 21:00:00,
2013-02-04 16:10:00,37.8,23.1,30.07,NNE,24,0.0,0.0,55,0.00,,,0.15,Wunderground v.1.15,2013-02-04 21:10:00,
2013-02-04 16:15:00,38.0,23.7,30.08,NNE,24,0.0,0.0,56,0.00,,,0.15,Wunderground v.1.15,2013-02-04 21:15:00,
2013-02-04 16:20:00,37.9,25.2,30.07,NNE,24,0.0,0.0,60,0.00,,,0.16,Wunderground v.1.15,2013-02-04 21:20:00,
2013-02-04 16:25:00,37.7,26.2,30.07,WNW,297,0.0,1.0,63,0.00,,,0.16,Wunderground v.1.15,2013-02-04 21:25:00,
2013-02-04 16:30:00,37.5,24.5,30.07,WNW,297,0.0,1.0,59,0.00,,,0.16,Wunderground v.1.15,2013-02-04 21:30:00,
2013-02-04 16:40:00,37.1,25.7,30.07,WNW,297,0.0,0.0,63,0.00,,,0.16,Wunderground v.1.15,2013-02-04 21:40:00,
2013-02-04 16:50:00,36.9,26.6,30.07,WNW,297,0.0,0.0,66,0.00,,,0.16,Wunderground v.1.15,2013-02-04 21:50:00,
2013-02-04 16:55:00,36.9,26.6,30.06,WNW,297,0.0,0.0,66,0.00,,,0.16,Wunderground v.1.15,2013-02-04 21:55:00,
2013-02-04 17:00:00,36.7,27.1,30.06,WNW,297,0.0,0.0,68,0.00,,,0.16,Wunderground v.1.15,2013-02-04 22:00:00,
2013-02-04 17:10:00,36.2,27.7,30.06,WNW,297,0.0,0.0,71,0.00,,,0.16,Wunderground v.1.15,2013-02-04 22:10:00,
2013-02-04 17:15:00,35.9,26.7,30.06,WNW,297,0.0,0.0,69,0.00,,,0.16,Wunderground v.1.15,2013-02-04 22:15:00,
2013-02-04 17:20:00,35.7,26.5,30.06,WNW,297,0.0,0.0,69,0.00,,,0.16,Wunderground v.1.15,2013-02-04 22:20:00,
2013-02-04 17:25:00,35.5,26.7,30.06,WNW,297,0.0,0.0,70,0.00,,,0.16,Wunderground v.1.15,2013-02-04 22:25:00,
2013-02-04 17:30:00,35.3,27.5,30.06,WNW,297,0.0,0.0,73,0.00,,,0.16,Wunderground v.1.15,2013-02-04 22:30:00,
2013-02-04 17:40:00,34.9,27.8,30.06,WNW,297,0.0,0.0,75,0.00,,,0.16,Wunderground v.1.15,2013-02-04 22:40:00,
2013-02-04 17:45:00,34.7,27.6,30.06,WNW,297,0.0,0.0,75,0.00,,,0.16,Wunderground v.1.15,2013-02-04 22:45:00,
2013-02-04 17:55:00,34.3,28.2,30.06,WNW,297,0.0,0.0,78,0.00,,,0.16,Wunderground v.1.15,2013-02-04 22:55:00,
2013-02-04 18:00:00,34.1,28.0,30.06,WNW,297,0.0,0.0,78,0.00,,,0.16,Wunderground v.1.15,2013-02-04 23:00:00,
2013-02-04 18:05:00,33.9,27.8,30.06,WNW,297,0.0,0.0,78,0.00,,,0.16,Wunderground v.1.15,2013-02-04 23:05:00,
2013-02-04 18:10:00,33.8,28.0,30.06,WNW,297,0.0,0.0,79,0.00,,,0.16,Wunderground v.1.15,2013-02-04 23:10:00,
2013-02-04 18:15:00,33.6,28.1,30.06,WNW,297,0.0,0.0,80,0.00,,,0.16,Wunderground v.1.15,2013-02-04 23:15:00,
2013-02-04 18:25:00,33.2,28.0,30.06,WNW,297,0.0,0.0,81,0.00,,,0.16,Wunderground v.1.15,2013-02-04 23:25:00,
2013-02-04 18:30:00,33.0,27.5,30.07,WNW,297,0.0,0.0,80,0.00,,,0.16,Wunderground v.1.15,2013-02-04 23:30:00,
2013-02-04 18:40:00,32.8,28.2,30.07,WNW,297,0.0,0.0,83,0.00,,,0.16,Wunderground v.1.15,2013-02-04 23:40:00,
2013-02-04 18:45:00,32.7,28.1,30.07,WNW,297,0.0,0.0,83,0.00,,,0.16,Wunderground v.1.15,2013-02-04 23:45:00,
2013-02-04 18:50:00,32.6,27.4,30.07,WNW,297,0.0,0.0,81,0.00,,,0.16,Wunderground v.1.15,2013-02-04 23:50:00,
2013-02-04 18:55:00,32.6,28.0,30.07,WNW,297,0.0,0.0,83,0.00,,,0.16,Wunderground v.1.15,2013-02-04 23:55:00,
2013-02-04 19:05:00,32.4,27.8,30.07,WNW,297,0.0,0.0,83,0.00,,,0.16,Wunderground v.1.15,2013-02-05 00:05:00,
2013-02-04 19:10:00,32.3,28.0,30.07,WNW,297,0.0,0.0,84,0.00,,,0.16,Wunderground v.1.15,2013-02-05 00:10:00,
2013-02-04 19:15:00,32.2,27.9,30.07,WNW,297,0.0,0.0,84,0.00,,,0.16,Wunderground v.1.15,2013-02-05 00:15:00,
2013-02-04 19:25:00,32.0,28.0,30.07,WNW,297,0.0,0.0,85,0.00,,,0.16,Wunderground v.1.15,2013-02-05 00:25:00,
2013-02-04 19:30:00,32.0,28.0,30.07,WNW,297,0.0,0.0,85,0.00,,,0.16,Wunderground v.1.15,2013-02-05 00:30:00,
2013-02-04 19:35:00,31.9,27.9,30.07,WNW,297,0.0,0.0,85,0.00,,,0.16,Wunderground v.1.15,2013-02-05 00:35:00,
2013-02-04 19:40:00,31.9,27.9,30.07,WNW,297,0.0,0.0,85,0.00,,,0.16,Wunderground v.1.15,2013-02-05 00:40:00,
2013-02-04 19:45:00,31.9,27.9,30.07,WNW,297,0.0,0.0,85,0.00,,,0.17,Wunderground v.1.15,2013-02-05 00:45:00,
2013-02-04 19:55:00,31.7,27.7,30.07,WNW,297,0.0,0.0,85,0.00,,,0.17,Wunderground v.1.15,2013-02-05 00:55:00,
2013-02-04 20:05:00,31.6,27.9,30.08,WNW,297,0.0,0.0,86,0.00,,,0.17,Wunderground v.1.15,2013-02-05 01:05:00,
2013-02-04 20:10:00,31.7,28.0,30.08,WNW,297,0.0,0.0,86,0.00,,,0.17,Wunderground v.1.15,2013-02-05 01:10:00,
2013-02-04 20:15:00,31.7,28.0,30.07,WNW,297,0.0,0.0,86,0.00,,,0.17,Wunderground v.1.15,2013-02-05 01:15:00,
2013-02-04 20:25:00,31.6,28.2,30.08,WNW,297,0.0,0.0,87,0.00,,,0.17,Wunderground v.1.15,2013-02-05 01:25:00,
2013-02-04 20:30:00,31.6,28.2,30.08,WNW,297,0.0,0.0,87,0.00,,,0.17,Wunderground v.1.15,2013-02-05 01:30:00,
2013-02-04 20:40:00,31.6,28.2,30.08,WNW,297,0.0,0.0,87,0.00,,,0.17,Wunderground v.1.15,2013-02-05 01:40:00,
2013-02-04 20:45:00,31.6,28.5,30.07,WNW,297,0.0,0.0,88,0.00,,,0.17,Wunderground v.1.15,2013-02-05 01:45:00,
2013-02-04 20:50:00,31.5,28.4,30.07,WNW,297,0.0,2.0,88,0.00,,,0.17,Wunderground v.1.15,2013-02-05 01:50:00,
2013-02-04 20:55:00,31.5,28.1,30.08,WNW,297,1.0,2.0,87,0.00,,,0.17,Wunderground v.1.15,2013-02-05 01:55:00,
2013-02-04 21:00:00,31.5,28.1,30.08,WNW,297,1.0,1.0,87,0.00,,,0.17,Wunderground v.1.15,2013-02-05 02:00:00,
2013-02-04 21:05:00,31.5,28.1,30.07,WNW,297,0.0,1.0,87,0.00,,,0.17,Wunderground v.1.15,2013-02-05 02:05:00,
2013-02-04 21:10:00,31.5,28.1,30.07,WNW,297,0.0,0.0,87,0.00,,,0.17,Wunderground v.1.15,2013-02-05 02:10:00,
2013-02-04 21:15:00,31.5,28.1,30.08,WNW,297,0.0,0.0,87,0.00,,,0.17,Wunderground v.1.15,2013-02-05 02:15:00,
2013-02-04 21:25:00,31.5,28.1,30.08,WNW,297,0.0,1.0,87,0.00,,,0.17,Wunderground v.1.15,2013-02-05 02:25:00,
2013-02-04 21:30:00,31.5,28.1,30.08,WNW,297,0.0,1.0,87,0.00,,,0.17,Wunderground v.1.15,2013-02-05 02:30:00,
2013-02-04 21:40:00,31.5,28.1,30.08,WNW,297,1.0,1.0,87,0.00,,,0.17,Wunderground v.1.15,2013-02-05 02:40:00,
2013-02-04 21:45:00,31.5,28.1,30.07,WNW,297,1.0,1.0,87,0.00,,,0.17,Wunderground v.1.15,2013-02-05 02:45:00,
2013-02-04 21:50:00,31.5,28.1,30.07,WNW,297,0.0,0.0,87,0.00,,,0.17,Wunderground v.1.15,2013-02-05 02:50:00,
2013-02-04 21:55:00,31.4,28.3,30.07,WNW,297,0.0,0.0,88,0.00,,,0.17,Wunderground v.1.15,2013-02-05 02:55:00,
2013-02-04 22:00:00,31.4,28.3,30.07,WNW,297,0.0,0.0,88,0.00,,,0.17,Wunderground v.1.15,2013-02-05 03:00:00,
2013-02-04 22:10:00,31.3,28.2,30.07,WNW,297,0.0,0.0,88,0.00,,,0.17,Wunderground v.1.15,2013-02-05 03:10:00,
2013-02-04 22:15:00,31.3,28.2,30.07,WNW,297,0.0,2.0,88,0.00,,,0.17,Wunderground v.1.15,2013-02-05 03:15:00,
2013-02-04 22:25:00,31.4,28.0,30.07,WNW,297,0.0,1.0,87,0.00,,,0.17,Wunderground v.1.15,2013-02-05 03:25:00,
2013-02-04 22:30:00,31.4,28.0,30.07,WNW,297,0.0,0.0,87,0.00,,,0.17,Wunderground v.1.15,2013-02-05 03:30:00,
2013-02-04 22:35:00,31.4,28.0,30.06,WNW,297,0.0,0.0,87,0.00,,,0.17,Wunderground v.1.15,2013-02-05 03:35:00,
2013-02-04 22:40:00,31.4,28.0,30.07,WNW,297,0.0,1.0,87,0.00,,,0.17,Wunderground v.1.15,2013-02-05 03:40:00,
2013-02-04 22:45:00,31.4,28.3,30.07,WNW,297,1.0,1.0,88,0.00,,,0.17,Wunderground v.1.15,2013-02-05 03:45:00,
2013-02-04 22:55:00,31.4,28.0,30.07,WNW,297,0.0,0.0,87,0.00,,,0.17,Wunderground v.1.15,2013-02-05 03:55:00,
2013-02-04 23:00:00,31.3,27.9,30.07,WNW,297,0.0,0.0,87,0.00,,,0.17,Wunderground v.1.15,2013-02-05 04:00:00,
2013-02-04 23:10:00,31.3,27.9,30.07,WNW,297,0.0,1.0,87,0.00,,,0.17,Wunderground v.1.15,2013-02-05 04:10:00,
2013-02-04 23:15:00,31.3,27.9,30.07,WNW,297,0.0,1.0,87,0.00,,,0.17,Wunderground v.1.15,2013-02-05 04:15:00,
2013-02-04 23:20:00,31.4,28.3,30.07,WNW,297,0.0,0.0,88,0.00,,,0.17,Wunderground v.1.15,2013-02-05 04:20:00,
2013-02-04 23:25:00,31.3,27.9,30.06,WNW,297,0.0,0.0,87,0.00,,,0.17,Wunderground v.1.15,2013-02-05 04:25:00,
2013-02-04 23:35:00,31.2,28.1,30.06,WNW,297,0.0,0.0,88,0.00,,,0.17,Wunderground v.1.15,2013-02-05 04:35:00,
2013-02-04 23:40:00,31.1,28.2,30.06,WNW,297,0.0,0.0,89,0.00,,,0.17,Wunderground v.1.15,2013-02-05 04:40:00,
2013-02-04 23:45:00,31.1,28.0,30.06,WNW,297,0.0,0.0,88,0.00,,,0.17,Wunderground v.1.15,2013-02-05 04:45:00,
2013-02-04 23:55:00,31.0,27.9,30.06,WNW,297,0.0,0.0,88,0.00,,,0.17,Wunderground v.1.15,2013-02-05 04:55:00,